• In Portugal
  • List of Countries
  • For 7 days
  • Water Temperature
  • Satellite Maps
  • Weather Map
  • Weather Widgets
  • user-avatar
    Login

    Hourly Weather Lowech

    Today, 25 September, Tuesday

    Time Temperature Precipitation Wind Pressure Humidity
    00:00 +11°C° 0 mm 7 mps 741 mmHg 55%
    01:00 +10°C° 0 mm 7 mps 741 mmHg 56%
    02:00 +10°C° 0 mm 6 mps 741 mmHg 56%
    03:00 +9°C° 0 mm 6 mps 742 mmHg 58%
    04:00 +8°C° 0 mm 5 mps 742 mmHg 60%
    05:00 +8°C° 0 mm 5 mps 742 mmHg 61%
    06:00 +8°C° 0 mm 5 mps 743 mmHg 58%
    07:00 +9°C° 0 mm 5 mps 743 mmHg 55%
    08:00 +9°C° 0 mm 6 mps 743 mmHg 52%
    09:00 +11°C° 0 mm 6 mps 744 mmHg 46%
    10:00 +13°C° 0 mm 6 mps 744 mmHg 40%
    11:00 +15°C° 0 mm 6 mps 744 mmHg 34%
    12:00 +16°C° 0 mm 6 mps 744 mmHg 31%
    13:00 +16°C° 0 mm 6 mps 744 mmHg 28%
    14:00 +17°C° 0 mm 6 mps 743 mmHg 25%
    15:00 +17°C° 0 mm 6 mps 743 mmHg 25%
    16:00 +16°C° 0 mm 6 mps 743 mmHg 26%
    17:00 +16°C° 0 mm 5 mps 744 mmHg 26%
    18:00 +14°C° 0 mm 4 mps 744 mmHg 30%
    19:00 +12°C° 0 mm 4 mps 745 mmHg 34%
    20:00 +11°C° 0 mm 3 mps 745 mmHg 38%
    21:00 +10°C° 0 mm 3 mps 746 mmHg 40%
    22:00 +10°C° 0 mm 2 mps 747 mmHg 42%
    23:00 +9°C° 0 mm 2 mps 747 mmHg 44%

    Tomorrow, 26 September, Wednesday

    Time Temperature Precipitation Wind Pressure Humidity
    00:00 +8°C° 0 mm 2 mps 747 mmHg 46%
    01:00 +9°C° 0 mm 1 mps 748 mmHg 49%
    02:00 +8°C° 0 mm 1 mps 748 mmHg 51%
    03:00 +8°C° 0 mm 1 mps 748 mmHg 53%
    04:00 +7°C° 0 mm 1 mps 748 mmHg 55%
    05:00 +7°C° 0 mm 1 mps 748 mmHg 57%
    06:00 +8°C° 0 mm 1 mps 749 mmHg 54%
    07:00 +9°C° 0 mm 1 mps 749 mmHg 51%
    08:00 +10°C° 0 mm 1 mps 749 mmHg 48%
    09:00 +11°C° 0 mm 1 mps 749 mmHg 44%
    10:00 +13°C° 0 mm 2 mps 749 mmHg 41%
    11:00 +14°C° 0 mm 2 mps 749 mmHg 37%
    12:00 +14°C° 0 mm 3 mps 749 mmHg 36%
    13:00 +14°C° 0 mm 3 mps 748 mmHg 35%
    14:00 +16°C° 0 mm 3 mps 748 mmHg 34%
    15:00 +14°C° 0 mm 3 mps 748 mmHg 34%
    16:00 +14°C° 0 mm 3 mps 748 mmHg 35%
    17:00 +15°C° 0 mm 2 mps 747 mmHg 35%
    18:00 +13°C° 0 mm 2 mps 748 mmHg 40%
    19:00 +10°C° 0 mm 2 mps 748 mmHg 44%
    20:00 +10°C° 0 mm 1 mps 748 mmHg 48%
    21:00 +9°C° 0 mm 1 mps 749 mmHg 50%
    22:00 +8°C° 0 mm 1 mps 749 mmHg 51%
    23:00 +8°C° 0 mm 1 mps 749 mmHg 52%

    Day after tomorrow, 27 September, Thursday

    Time Temperature Precipitation Wind Pressure Humidity
    00:00 +7°C° 0 mm 1 mps 749 mmHg 53%
    01:00 +7°C° 0 mm 1 mps 749 mmHg 54%
    02:00 +6°C° 0 mm 1 mps 749 mmHg 55%
    03:00 +6°C° 0 mm 1 mps 749 mmHg 56%
    04:00 +6°C° 0 mm 1 mps 748 mmHg 57%
    05:00 +6°C° 0 mm 1 mps 748 mmHg 58%
    06:00 +7°C° 0 mm 1 mps 748 mmHg 53%
    07:00 +8°C° 0 mm 1 mps 748 mmHg 49%
    08:00 +10°C° 0 mm 1 mps 748 mmHg 45%
    09:00 +11°C° 0 mm 1 mps 748 mmHg 41%
    10:00 +13°C° 0 mm 2 mps 748 mmHg 37%
    11:00 +15°C° 0 mm 2 mps 747 mmHg 33%
    12:00 +15°C° 0 mm 2 mps 747 mmHg 31%
    13:00 +16°C° 0 mm 2 mps 746 mmHg 29%
    14:00 +17°C° 0 mm 3 mps 745 mmHg 27%
    15:00 +17°C° 0 mm 2 mps 745 mmHg 27%
    16:00 +16°C° 0 mm 2 mps 744 mmHg 28%
    17:00 +16°C° 0 mm 2 mps 744 mmHg 28%
    18:00 +14°C° 0 mm 2 mps 744 mmHg 33%
    19:00 +12°C° 0 mm 1 mps 744 mmHg 37%
    20:00 +10°C° 0 mm 1 mps 744 mmHg 42%
    21:00 +9°C° 0 mm 1 mps 744 mmHg 42%
    22:00 +9°C° 0 mm 1 mps 744 mmHg 43%
    23:00 +9°C° 0 mm 1 mps 744 mmHg 43%

    28 September, Friday

    Time Temperature Precipitation Wind Pressure Humidity
    00:00 +8°C° 0 mm 1 mps 744 mmHg 43%
    01:00 +8°C° 0 mm 1 mps 743 mmHg 44%
    02:00 +8°C° 0 mm 1 mps 743 mmHg 44%
    03:00 +8°C° 0 mm 1 mps 743 mmHg 43%
    04:00 +8°C° 0 mm 1 mps 743 mmHg 43%
    05:00 +8°C° 0 mm 1 mps 742 mmHg 43%
    06:00 +9°C° 0 mm 1 mps 742 mmHg 40%
    07:00 +9°C° 0 mm 0 mps 742 mmHg 38%
    08:00 +11°C° 0 mm 0 mps 742 mmHg 35%
    09:00 +14°C° 0 mm 1 mps 742 mmHg 33%
    10:00 +16°C° 0 mm 1 mps 742 mmHg 30%
    11:00 +18°C° 0 mm 2 mps 742 mmHg 28%
    12:00 +19°C° 0 mm 2 mps 741 mmHg 27%
    13:00 +20°C° 0 mm 2 mps 741 mmHg 27%
    14:00 +21°C° 0 mm 3 mps 740 mmHg 27%
    15:00 +20°C° 0 mm 2 mps 740 mmHg 29%
    16:00 +20°C° 0 mm 2 mps 739 mmHg 31%
    17:00 +20°C° 0 mm 2 mps 739 mmHg 33%
    18:00 +18°C° 0 mm 2 mps 738 mmHg 37%
    19:00 +16°C° 0 mm 1 mps 738 mmHg 41%
    20:00 +14°C° 0 mm 1 mps 738 mmHg 45%
    21:00 +13°C° 0 mm 1 mps 738 mmHg 47%
    22:00 +13°C° 0 mm 1 mps 738 mmHg 49%
    23:00 +13°C° 0 mm 1 mps 738 mmHg 50%

    29 September, Saturday

    Time Temperature Precipitation Wind Pressure Humidity
    00:00 +12°C° 0 mm 1 mps 738 mmHg 52%
    01:00 +12°C° 0 mm 1 mps 738 mmHg 53%
    02:00 +12°C° 0 mm 1 mps 738 mmHg 55%
    03:00 +12°C° 0 mm 1 mps 737 mmHg 56%
    04:00 +11°C° 0 mm 1 mps 737 mmHg 58%
    05:00 +11°C° 0 mm 1 mps 737 mmHg 60%
    06:00 +12°C° 0 mm 1 mps 737 mmHg 56%
    07:00 +13°C° 0 mm 1 mps 737 mmHg 53%
    08:00 +15°C° 0 mm 1 mps 737 mmHg 50%
    09:00 +18°C° 0 mm 1 mps 737 mmHg 44%
    10:00 +19°C° 0 mm 1 mps 737 mmHg 39%
    11:00 +20°C° 0 mm 2 mps 737 mmHg 33%
    12:00 +21°C° 0 mm 2 mps 737 mmHg 32%
    13:00 +23°C° 0 mm 2 mps 737 mmHg 30%
    14:00 +24°C° 0 mm 2 mps 737 mmHg 29%
    15:00 +23°C° 0 mm 2 mps 737 mmHg 30%
    16:00 +23°C° 0 mm 1 mps 736 mmHg 32%
    17:00 +23°C° 0 mm 1 mps 736 mmHg 33%
    18:00 +21°C° 0 mm 1 mps 737 mmHg 36%
    19:00 +19°C° 0 mm 1 mps 737 mmHg 39%
    20:00 +16°C° 0 mm 1 mps 738 mmHg 42%
    21:00 +15°C° 0 mm 1 mps 738 mmHg 43%
    22:00 +15°C° 0 mm 1 mps 738 mmHg 44%
    23:00 +14°C° 0 mm 1 mps 738 mmHg 44%

    30 September, Sunday

    Time Temperature Precipitation Wind Pressure Humidity
    00:00 +14°C° 0 mm 1 mps 739 mmHg 47%
    01:00 +13°C° 0 mm 1 mps 739 mmHg 49%
    02:00 +13°C° 0 mm 1 mps 739 mmHg 51%
    03:00 +12°C° 0 mm 1 mps 739 mmHg 57%
    04:00 +12°C° 0 mm 1 mps 740 mmHg 62%
    05:00 +11°C° 0 mm 1 mps 740 mmHg 67%
    06:00 +12°C° 0 mm 1 mps 740 mmHg 66%
    07:00 +14°C° 0 mm 2 mps 741 mmHg 64%
    08:00 +15°C° 0 mm 2 mps 741 mmHg 63%
    09:00 +16°C° 0 mm 2 mps 741 mmHg 58%
    10:00 +18°C° 0 mm 2 mps 741 mmHg 54%
    11:00 +20°C° 0 mm 3 mps 741 mmHg 49%
    12:00 +21°C° 0 mm 3 mps 741 mmHg 47%
    13:00 +22°C° 0 mm 3 mps 741 mmHg 44%
    14:00 +24°C° 0 mm 3 mps 740 mmHg 42%
    15:00 +22°C° 0 mm 3 mps 740 mmHg 44%
    16:00 +22°C° 0 mm 3 mps 740 mmHg 46%
    17:00 +21°C° 0 mm 3 mps 740 mmHg 48%
    18:00 +19°C° 0 mm 3 mps 740 mmHg 54%
    19:00 +17°C° 0 mm 2 mps 740 mmHg 60%
    20:00 +16°C° 0 mm 2 mps 740 mmHg 66%
    21:00 +15°C° 0 mm 2 mps 741 mmHg 68%
    22:00 +15°C° 0 mm 2 mps 741 mmHg 69%
    23:00 +14°C° 0 mm 1 mps 741 mmHg 71%
    Show more